Content
SEND FEEDBACK

Daily
Averages
Monthly
Summary
United States of America

WEST HARTFORD, CONNECTICUT


Home > North America > United States > Connecticut
Elevation: 270 feet     Latitude: 41 45N     Longitude: 072 47W

WEATHER
 
SELECT A DAY
Number of Records: 202,332;   Date Range: 1/1/95 - 8/28/14
 
SHARE

PRINT THIS DATA

[ ← Previous Day ]
WEATHER ALMANAC - JANUARY 31, 2013
[ Next Day → ]
[ °C ]   °F
Weather ElementAverageHighLow
Temperature51.3 °F61 °F (3:53 am)32 °F (10:53 pm)
Dewpoint39.3 °F59 °F (5:05 am)10.9 °F (10:53 pm)
Humidity67.1 %94 % (1:07 am)29 % (4:53 pm)
Barometer29.27 in29.68 in (11:53 pm)29.01 in (7:53 am)
Wind Speed20.7 mph34.5 mph (4:53 am)
Wind Gust54.1 mph (4:43 am)
Weather ElementAverage
Visibility6.8 mi
Wind DirectionSW (226.3 °)

Weather ElementTotal
Precipitation2.12 in
Heating Degree Days18.5 (Base 65)
Averaged from 35 records on January 31, 2013
WEATHER CONDITIONS BREAKOUT
WIND DIRECTION BREAKOUT
WEATHER BY HOUR - JANUARY 31, 2013
[ °C ]   °F
Local TimeTemperatureDewpointHumidityBarometerVisibilityWind DirectionWind SpeedGust SpeedPrecipitationEventsConditions
1:07 AM59.0 °F57.2 °F94 %29.34 in4.0 miSouth (190°)17.3 mph36.8 mph0.02 inRainLight Rain
1:29 AM59.0 °F57.2 °F94 %29.32 in1.8 miSouth (180°)19.6 mph33.4 mph0.07 inRainRain
1:51 AM59.0 °F57.2 °F94 %29.29 in2.5 miSouth (190°)23.0 mph34.5 mph0.15 inRainLight Rain
1:53 AM59.0 °F57.0 °F93 %29.29 in2.0 miSouth (190°)20.7 mph34.5 mph0.15 inRainLight Rain
2:24 AM60.8 °F57.2 °F88 %29.25 in3.0 miSouth (190°)20.7 mph42.6 mph0.02 inRainLight Rain
2:53 AM60.1 °F57.0 °F90 %29.20 in4.0 miSouth (190°)32.2 mph42.6 mph0.04 inRainRain
3:05 AM60.8 °F57.2 °F88 %29.18 in4.0 miSouth (190°)26.5 mph41.4 mph0.02 inRainRain
3:53 AM61.0 °F57.0 °F87 %29.12 in5.0 miSouth (180°)25.3 mph41.4 mph0.09 inRainRain
4:18 AM60.8 °F57.2 °F88 %29.09 in2.5 miSouth (190°)25.3 mph41.4 mph0.07 inRainRain
4:32 AM60.8 °F57.2 °F88 %29.05 in1.8 miSouth (190°)26.5 mph50.6 mph0.16 inRainHeavy Rain
4:43 AM60.8 °F57.2 °F88 %29.02 in2.0 miSouth (190°)33.4 mph54.1 mph0.24 inRainHeavy Rain
4:53 AM61.0 °F57.9 °F90 %29.02 in2.0 miSouth (190°)34.5 mph52.9 mph0.29 inRainHeavy Rain
5:05 AM60.8 °F59.0 °F94 %29.03 in1.5 miSouth (190°)28.8 mph51.8 mph0.10 inRainHeavy Rain
5:24 AM60.8 °F57.2 °F88 %29.05 in3.0 miSSW (200°)26.5 mph42.6 mph0.22 inRainLight Rain
5:34 AM60.8 °F55.4 °F82 %29.06 in10.0 miSSW (200°)18.4 mph46.0 mph0.22 inRainLight Rain
5:53 AM60.1 °F55.0 °F83 %29.09 in4.0 miSSW (200°)19.6 mph34.5 mph0.25 inRainRain
7:26 AM55.4 °F53.6 °F94 %29.02 in10.0 miSouth (180°)15.0 mph23.0 mphMostly Cloudy
7:53 AM57.0 °F52.0 °F83 %29.01 in10.0 miSSW (200°)20.7 mph31.1 mphMostly Cloudy
8:35 AM55.4 °F46.4 °F72 %29.08 in10.0 miWest (260°)18.4 mph32.2 mph0.00 inOvercast
8:53 AM51.1 °F41.0 °F68 %29.11 in6.0 miWest (270°)19.6 mph38.0 mph0.01 inRainLight Rain
9:53 AM50.0 °F35.1 °F57 %29.19 in10.0 miWest (270°)23.0 mph35.7 mph0.00 inMostly Cloudy
10:53 AM48.9 °F30.9 °F50 %29.24 in10.0 miWest (270°)13.8 mph32.2 mphScattered Clouds
11:53 AM48.0 °F24.1 °F39 %29.27 in10.0 miWest (270°)19.6 mph36.8 mphScattered Clouds
12:53 PM48.0 °F23.0 °F37 %29.31 in10.0 miWest (270°)13.8 mph23.0 mphOvercast
1:53 PM45.0 °F18.0 °F34 %29.34 in10.0 miWest (270°)17.3 mph29.9 mphScattered Clouds
2:53 PM45.0 °F17.1 °F33 %29.38 in10.0 miWest (260°)19.6 mph32.2 mphMostly Cloudy
3:53 PM43.0 °F17.1 °F35 %29.42 in10.0 miWest (280°)16.1 mph23.0 mphScattered Clouds
4:53 PM42.1 °F12.0 °F29 %29.46 in10.0 miWest (270°)27.6 mph41.4 mphMostly Cloudy
5:53 PM39.9 °F12.0 °F32 %29.51 in10.0 miWSW (250°)15.0 mph25.3 mphClear
6:53 PM37.0 °F16.0 °F42 %29.57 in10.0 miWest (260°)20.7 mph29.9 mphClear
7:53 PM35.1 °F12.0 °F39 %29.61 in10.0 miWest (270°)20.7 mph32.2 mphPartly Cloudy
8:53 PM33.1 °F12.9 °F43 %29.64 in10.0 miWest (270°)9.2 mph24.2 mph0.00 inPartly Cloudy
9:53 PM33.1 °F12.9 °F43 %29.66 in10.0 miWSW (250°)11.5 mph19.6 mphPartly Cloudy
10:53 PM32.0 °F10.9 °F42 %29.66 in10.0 miWSW (250°)10.4 mph19.6 mphPartly Cloudy
11:53 PM32.0 °F14.0 °F48 %29.68 in10.0 miWSW (250°)15.0 mph19.6 mphOvercast
Hourly data recorded from KHFD, located miles away from West Hartford, Connecticut







STORIES FROM OUR PARTNERS